311P/PanSTARRS (2017)

Japanese version
Home page
Updated on August 22, 2016

---------------------------------------------------------------------

* Profile

* Orbital Elements

Epoch 2017 July 26.0 TT = JDT 2457960.5
T 2017 July 10.64626 TT                                 MPCW
q   1.9355769            (2000.0)            P               Q
n   0.30438737     Peri.  143.98720     +0.44799784     -0.88994197
a   2.1886936      Node   279.25778     +0.79868204     +0.44133333
e   0.1156474      Incl.    4.96659     +0.40175234     +0.11501383
P   3.24
From 161 observations 2005 Mar. 12-2016 July 13, mean residual 0".3.

* Magnitudes Graph

        H = 17.5  G = 0.15

---------------------------------------------------------------------

The orbital elements are published on M.P.E.C. 2016-Q04.
The magnitudes graphs are made with Comet for Windows.

---------------------------------------------------------------------

Copyright(C) Seiichi Yoshida (comet@aerith.net). All rights reserved.